User: anonymous   Login
Location: Unspecified
(0.0000°N, 0.0000°E)
Time: 01:34:45
(UTC+02:00)
Language:

Cosmos 1703 Rocket - Orbit

View from above orbital plane
View from above orbital plane
View from above satellite
View from above satellite

Ground track
Ground track

The orbit data is extracted from the following two-line orbital elements,

1 16263U 85108B   16120.56318602  .00000137  00000-0  14013-4 0  9995
2 16263  82.5019 142.3326 0018543 270.4172 203.4932 14.82911031643084
Epoch (UTC): 29 April 2016 13:30:59
Eccentricity: 0.0018543
inclination: 82.5019°
perigee height: 607 km
apogee height: 633 km
right ascension of ascending node: 142.3326°
argument of perigee: 270.4172°
revolutions per day: 14.82911031
mean anomaly at epoch: 203.4932°
orbit number at epoch: 64308

The dashed part of the orbit path shows where the satellite is in the earth's shadow,  

DLR